Location: Stuart
(27.1975°N, 80.2528°W)
Time: 03:20:14
(UTC-04:00)

Hubble Space Telescope - Visible Passes

Search period start: 15 May 2021 00:00
Search period end: 25 May 2021 00:00
Orbit: 535 x 539 km, 28.5° (Epoch: 14 May)

Date Brightness Start Highest point End Pass type
(mag) Time Alt. Az. Time Alt. Az. Time Alt. Az.
18 May 3.3 04:38:02 10° SE 04:38:02 10° SE 04:38:33 10° SE visible
19 May 3.2 04:27:39 13° SE 04:27:39 13° SE 04:28:49 10° ESE visible
19 May 1.3 06:03:24 10° WSW 06:07:23 48° SSE 06:11:22 10° E visible
20 May 3.1 04:17:14 15° SE 04:17:14 15° SE 04:18:28 10° ESE visible
20 May 1.0 05:52:32 11° WSW 05:56:26 59° SSE 06:00:29 10° E visible
21 May 3.2 04:06:46 16° ESE 04:06:46 16° ESE 04:07:53 10° ESE visible
21 May 0.8 05:42:04 14° WSW 05:45:30 70° SSE 05:49:36 10° E visible
22 May 3.3 03:56:17 15° ESE 03:56:17 15° ESE 03:57:12 10° E visible
22 May 0.7 05:31:35 18° WSW 05:34:34 81° SSE 05:38:42 10° E visible
23 May 3.4 03:45:47 14° E 03:45:47 14° E 03:46:26 10° E visible
23 May 0.7 05:21:05 22° W 05:23:40 89° N 05:27:47 10° E visible
24 May 3.7 03:35:17 12° E 03:35:17 12° E 03:35:36 10° E visible
24 May 0.7 05:10:35 27° W 05:12:45 82° N 05:16:53 10° E visible
